Time,TemperatureF,DewpointF,PressureIn,WindDirection,WindDirectionDegrees,WindSpeedMPH,WindSpeedGustMPH,Humidity,HourlyPrecipIn,Conditions,Clouds,dailyrainin,SoftwareType,DateUTC
2013-05-02 00:14:00,69.3,54.0,29.51,SSE,155,0.0,1.0,58,0.00,,,0.00,weatherlink.com 1.10,2013-05-02 04:14:00,
2013-05-02 00:29:00,66.9,54.0,29.51,SSE,155,0.0,0.0,64,0.00,,,0.00,weatherlink.com 1.10,2013-05-02 04:29:00,
2013-05-02 00:44:00,65.7,54.0,29.52,SSE,155,0.0,1.0,66,0.00,,,0.00,weatherlink.com 1.10,2013-05-02 04:44:00,
2013-05-02 00:59:00,66.7,54.0,29.52,SE,141,1.0,3.0,65,0.00,,,0.00,weatherlink.com 1.10,2013-05-02 04:59:00,
2013-05-02 01:14:00,66.9,55.0,29.52,South,169,1.0,2.0,66,0.00,,,0.00,weatherlink.com 1.10,2013-05-02 05:14:00,
2013-05-02 01:29:00,66.8,56.0,29.52,SSE,158,1.0,3.0,68,0.00,,,0.00,weatherlink.com 1.10,2013-05-02 05:29:00,
2013-05-02 01:44:00,66.4,56.0,29.52,SE,146,1.0,3.0,69,0.00,,,0.00,weatherlink.com 1.10,2013-05-02 05:44:00,
2013-05-02 01:59:00,66.3,56.0,29.51,SE,143,2.0,3.0,70,0.00,,,0.00,weatherlink.com 1.10,2013-05-02 05:59:00,
2013-05-02 02:15:00,66.0,56.0,29.51,SSE,166,1.0,7.0,71,0.00,,,0.00,weatherlink.com 1.10,2013-05-02 06:15:00,
2013-05-02 02:30:00,65.9,56.0,29.50,South,184,4.0,7.0,71,0.00,,,0.00,weatherlink.com 1.10,2013-05-02 06:30:00,
2013-05-02 02:45:00,65.5,56.0,29.50,SSW,197,3.0,5.0,72,0.00,,,0.00,weatherlink.com 1.10,2013-05-02 06:45:00,
2013-05-02 03:00:00,65.2,56.0,29.50,SE,146,3.0,7.0,72,0.00,,,0.00,weatherlink.com 1.10,2013-05-02 07:00:00,
2013-05-02 03:15:00,64.7,56.0,29.50,SSE,166,0.0,4.0,73,0.00,,,0.00,weatherlink.com 1.10,2013-05-02 07:15:00,
2013-05-02 03:30:00,63.9,55.0,29.50,South,170,1.0,2.0,74,0.00,,,0.00,weatherlink.com 1.10,2013-05-02 07:30:00,
2013-05-02 03:45:00,63.3,55.0,29.50,SE,135,0.0,2.0,75,0.00,,,0.00,weatherlink.com 1.10,2013-05-02 07:45:00,
2013-05-02 04:00:00,62.7,55.0,29.50,SE,143,2.0,3.0,76,0.00,,,0.00,weatherlink.com 1.10,2013-05-02 08:00:00,
2013-05-02 04:15:00,62.5,55.0,29.50,SSE,148,0.0,2.0,76,0.00,,,0.00,weatherlink.com 1.10,2013-05-02 08:15:00,
2013-05-02 04:30:00,61.8,54.0,29.50,SSE,148,0.0,0.0,76,0.00,,,0.00,weatherlink.com 1.10,2013-05-02 08:30:00,
2013-05-02 04:45:00,60.6,54.0,29.50,East,97,0.0,1.0,79,0.00,,,0.00,weatherlink.com 1.10,2013-05-02 08:45:00,
2013-05-02 05:00:00,59.6,54.0,29.50,East,97,0.0,0.0,81,0.00,,,0.00,weatherlink.com 1.10,2013-05-02 09:00:00,
2013-05-02 05:15:00,58.6,53.0,29.50,East,99,0.0,0.0,82,0.00,,,0.00,weatherlink.com 1.10,2013-05-02 09:15:00,
2013-05-02 05:30:00,58.2,53.0,29.50,East,98,0.0,0.0,83,0.00,,,0.00,weatherlink.com 1.10,2013-05-02 09:30:00,
2013-05-02 05:45:00,57.6,53.0,29.50,East,99,0.0,0.0,84,0.00,,,0.00,weatherlink.com 1.10,2013-05-02 09:45:00,
2013-05-02 06:00:00,57.0,53.0,29.51,East,98,0.0,1.0,85,0.00,,,0.00,weatherlink.com 1.10,2013-05-02 10:00:00,
2013-05-02 06:15:00,56.4,53.0,29.51,East,98,0.0,1.0,87,0.00,,,0.00,weatherlink.com 1.10,2013-05-02 10:15:00,
2013-05-02 06:30:00,56.5,53.0,29.51,East,98,0.0,0.0,87,0.00,,,0.00,weatherlink.com 1.10,2013-05-02 10:30:00,
2013-05-02 06:45:00,56.3,53.0,29.52,East,98,0.0,0.0,87,0.00,,,0.00,weatherlink.com 1.10,2013-05-02 10:45:00,
2013-05-02 07:00:00,56.6,53.0,29.52,East,98,0.0,0.0,86,0.00,,,0.00,weatherlink.com 1.10,2013-05-02 11:00:00,
2013-05-02 07:15:00,57.2,53.0,29.52,East,99,0.0,0.0,86,0.00,,,0.00,weatherlink.com 1.10,2013-05-02 11:15:00,
2013-05-02 07:30:00,58.8,54.0,29.53,East,99,0.0,0.0,83,0.00,,,0.00,weatherlink.com 1.10,2013-05-02 11:30:00,
2013-05-02 07:45:00,60.7,54.0,29.53,East,79,0.0,2.0,78,0.00,,,0.00,weatherlink.com 1.10,2013-05-02 11:45:00,
2013-05-02 08:00:00,62.0,54.0,29.54,East,93,0.0,4.0,75,0.00,,,0.00,weatherlink.com 1.10,2013-05-02 12:00:00,
2013-05-02 08:15:00,63.0,55.0,29.54,ENE,70,2.0,3.0,74,0.00,,,0.00,weatherlink.com 1.10,2013-05-02 12:15:00,
2013-05-02 08:30:00,63.6,54.0,29.55,NE,48,2.0,4.0,72,0.00,,,0.00,weatherlink.com 1.10,2013-05-02 12:30:00,
2013-05-02 08:45:00,64.8,55.0,29.54,NNE,16,4.0,5.0,70,0.00,,,0.00,weatherlink.com 1.10,2013-05-02 12:45:00,
2013-05-02 09:00:00,66.0,54.0,29.55,East,79,1.0,6.0,66,0.00,,,0.00,weatherlink.com 1.10,2013-05-02 13:00:00,
2013-05-02 09:15:00,67.5,54.0,29.54,NNE,23,1.0,3.0,63,0.00,,,0.00,weatherlink.com 1.10,2013-05-02 13:15:00,
2013-05-02 09:30:00,68.6,54.0,29.54,SE,135,0.0,5.0,60,0.00,,,0.00,weatherlink.com 1.10,2013-05-02 13:30:00,
2013-05-02 09:45:00,69.0,55.0,29.54,NNE,30,4.0,7.0,61,0.00,,,0.00,weatherlink.com 1.10,2013-05-02 13:45:00,
2013-05-02 10:00:00,69.9,55.0,29.54,ESE,114,1.0,7.0,60,0.00,,,0.00,weatherlink.com 1.10,2013-05-02 14:00:00,
2013-05-02 10:15:00,70.0,56.0,29.54,East,91,1.0,5.0,61,0.00,,,0.00,weatherlink.com 1.10,2013-05-02 14:15:00,
2013-05-02 10:30:00,69.5,55.0,29.54,East,99,2.0,6.0,61,0.00,,,0.00,weatherlink.com 1.10,2013-05-02 14:30:00,
2013-05-02 10:46:00,71.3,55.0,29.54,East,93,6.0,10.0,57,0.00,,,0.00,weatherlink.com 1.10,2013-05-02 14:46:00,
2013-05-02 11:01:00,70.8,55.0,29.54,ENE,73,1.0,7.0,58,0.00,,,0.00,weatherlink.com 1.10,2013-05-02 15:01:00,
2013-05-02 11:16:00,72.2,56.0,29.53,ENE,72,4.0,8.0,57,0.00,,,0.00,weatherlink.com 1.10,2013-05-02 15:16:00,
2013-05-02 11:31:00,72.8,55.0,29.53,ESE,108,4.0,7.0,53,0.00,,,0.00,weatherlink.com 1.10,2013-05-02 15:31:00,
2013-05-02 11:46:00,73.9,55.0,29.53,ESE,106,4.0,6.0,52,0.00,,,0.00,weatherlink.com 1.10,2013-05-02 15:46:00,
2013-05-02 12:01:00,73.8,55.0,29.52,NNE,27,2.0,7.0,52,0.00,,,0.00,weatherlink.com 1.10,2013-05-02 16:01:00,
2013-05-02 12:16:00,72.8,56.0,29.53,ESE,107,4.0,9.0,55,0.00,,,0.00,weatherlink.com 1.10,2013-05-02 16:16:00,
2013-05-02 12:31:00,73.8,55.0,29.52,ENE,61,1.0,7.0,53,0.00,,,0.00,weatherlink.com 1.10,2013-05-02 16:31:00,
2013-05-02 12:46:00,76.3,56.0,29.52,North,354,3.0,8.0,49,0.00,,,0.00,weatherlink.com 1.10,2013-05-02 16:46:00,
2013-05-02 13:01:00,75.9,55.0,29.51,SE,129,3.0,8.0,49,0.00,,,0.00,weatherlink.com 1.10,2013-05-02 17:01:00,
2013-05-02 13:16:00,77.6,54.0,29.50,NE,43,7.0,10.0,44,0.00,,,0.00,weatherlink.com 1.10,2013-05-02 17:16:00,
2013-05-02 13:31:00,77.8,54.0,29.49,NNW,331,3.0,9.0,44,0.00,,,0.00,weatherlink.com 1.10,2013-05-02 17:31:00,
2013-05-02 13:46:00,79.6,53.0,29.49,ESE,105,5.0,8.0,40,0.00,,,0.00,weatherlink.com 1.10,2013-05-02 17:46:00,
2013-05-02 14:01:00,79.9,53.0,29.48,ENE,75,5.0,10.0,40,0.00,,,0.00,weatherlink.com 1.10,2013-05-02 18:01:00,
2013-05-02 14:16:00,79.6,52.0,29.48,East,100,4.0,9.0,38,0.00,,,0.00,weatherlink.com 1.10,2013-05-02 18:16:00,
2013-05-02 14:31:00,79.6,52.0,29.48,NE,37,6.0,10.0,39,0.00,,,0.00,weatherlink.com 1.10,2013-05-02 18:31:00,
2013-05-02 14:46:00,79.6,54.0,29.47,NNE,26,4.0,9.0,41,0.00,,,0.00,weatherlink.com 1.10,2013-05-02 18:46:00,
2013-05-02 15:01:00,79.5,54.0,29.47,NE,51,6.0,10.0,41,0.00,,,0.00,weatherlink.com 1.10,2013-05-02 19:01:00,
2013-05-02 15:16:00,79.7,53.0,29.46,ESE,120,2.0,8.0,40,0.00,,,0.00,weatherlink.com 1.10,2013-05-02 19:16:00,
2013-05-02 15:31:00,81.0,54.0,29.46,NNE,24,4.0,8.0,40,0.00,,,0.00,weatherlink.com 1.10,2013-05-02 19:31:00,
2013-05-02 15:46:00,81.0,54.0,29.45,ENE,76,3.0,9.0,40,0.00,,,0.00,weatherlink.com 1.10,2013-05-02 19:46:00,
2013-05-02 16:01:00,82.6,54.0,29.44,NNE,29,4.0,8.0,38,0.00,,,0.00,weatherlink.com 1.10,2013-05-02 20:01:00,
2013-05-02 16:16:00,82.3,53.0,29.44,ESE,117,5.0,9.0,37,0.00,,,0.00,weatherlink.com 1.10,2013-05-02 20:16:00,
2013-05-02 16:31:00,82.3,53.0,29.43,SE,138,1.0,10.0,37,0.00,,,0.00,weatherlink.com 1.10,2013-05-02 20:31:00,
2013-05-02 16:46:00,83.3,54.0,29.43,SSE,165,2.0,8.0,37,0.00,,,0.00,weatherlink.com 1.10,2013-05-02 20:46:00,
2013-05-02 17:01:00,82.0,55.0,29.42,SE,134,3.0,9.0,39,0.00,,,0.00,weatherlink.com 1.10,2013-05-02 21:01:00,
2013-05-02 17:16:00,82.8,54.0,29.42,SSW,208,4.0,9.0,37,0.00,,,0.00,weatherlink.com 1.10,2013-05-02 21:16:00,
2013-05-02 17:31:00,82.2,54.0,29.42,SSE,155,9.0,10.0,38,0.00,,,0.00,weatherlink.com 1.10,2013-05-02 21:31:00,
2013-05-02 18:01:00,82.1,55.0,29.41,South,191,5.0,8.0,39,0.00,,,0.00,weatherlink.com 1.10,2013-05-02 22:01:00,
2013-05-02 18:17:00,81.9,54.0,29.40,SE,139,4.0,9.0,38,0.00,,,0.00,weatherlink.com 1.10,2013-05-02 22:17:00,
2013-05-02 18:32:00,80.4,55.0,29.41,South,190,9.0,9.0,41,0.00,,,0.00,weatherlink.com 1.10,2013-05-02 22:32:00,
2013-05-02 18:47:00,79.6,54.0,29.40,South,177,2.0,8.0,42,0.00,,,0.00,weatherlink.com 1.10,2013-05-02 22:47:00,
2013-05-02 19:02:00,79.3,55.0,29.40,South,183,4.0,11.0,43,0.00,,,0.00,weatherlink.com 1.10,2013-05-02 23:02:00,
2013-05-02 19:17:00,78.3,54.0,29.40,SSE,149,4.0,10.0,43,0.00,,,0.00,weatherlink.com 1.10,2013-05-02 23:17:00,
2013-05-02 19:32:00,77.6,54.0,29.40,SE,137,4.0,9.0,44,0.00,,,0.00,weatherlink.com 1.10,2013-05-02 23:32:00,
2013-05-02 19:47:00,76.8,54.0,29.40,SSE,163,3.0,8.0,45,0.00,,,0.00,weatherlink.com 1.10,2013-05-02 23:47:00,
2013-05-02 20:02:00,76.2,53.0,29.40,SE,143,2.0,9.0,45,0.00,,,0.00,weatherlink.com 1.10,2013-05-03 00:02:00,
2013-05-02 20:17:00,75.4,53.0,29.40,SE,139,2.0,11.0,45,0.00,,,0.00,weatherlink.com 1.10,2013-05-03 00:17:00,
2013-05-02 20:32:00,74.5,52.0,29.41,SSE,157,2.0,6.0,45,0.00,,,0.00,weatherlink.com 1.10,2013-05-03 00:32:00,
2013-05-02 20:47:00,73.6,52.0,29.41,SE,127,1.0,6.0,47,0.00,,,0.00,weatherlink.com 1.10,2013-05-03 00:47:00,
2013-05-02 21:02:00,72.7,52.0,29.41,South,169,1.0,6.0,49,0.00,,,0.00,weatherlink.com 1.10,2013-05-03 01:02:00,
2013-05-02 21:17:00,71.9,51.0,29.42,SSE,154,3.0,10.0,48,0.00,,,0.00,weatherlink.com 1.10,2013-05-03 01:17:00,
2013-05-02 21:32:00,71.0,51.0,29.43,SE,135,3.0,5.0,49,0.00,,,0.00,weatherlink.com 1.10,2013-05-03 01:32:00,
2013-05-02 21:47:00,70.0,50.0,29.43,South,186,2.0,5.0,49,0.00,,,0.00,weatherlink.com 1.10,2013-05-03 01:47:00,
2013-05-02 22:02:00,69.3,50.0,29.43,ESE,108,3.0,6.0,50,0.00,,,0.00,weatherlink.com 1.10,2013-05-03 02:02:00,
2013-05-02 22:17:00,68.7,50.0,29.44,ESE,118,5.0,5.0,51,0.00,,,0.00,weatherlink.com 1.10,2013-05-03 02:17:00,
2013-05-02 22:32:00,68.2,50.0,29.44,SE,143,1.0,6.0,52,0.00,,,0.00,weatherlink.com 1.10,2013-05-03 02:32:00,
2013-05-02 22:47:00,67.4,50.0,29.43,SE,139,1.0,5.0,53,0.00,,,0.00,weatherlink.com 1.10,2013-05-03 02:47:00,
2013-05-02 23:02:00,67.0,50.0,29.43,SSE,158,3.0,8.0,54,0.00,,,0.00,weatherlink.com 1.10,2013-05-03 03:02:00,
2013-05-02 23:17:00,66.5,50.0,29.43,SSE,150,2.0,4.0,55,0.00,,,0.00,weatherlink.com 1.10,2013-05-03 03:17:00,
2013-05-02 23:32:00,66.1,49.0,29.44,SE,131,3.0,3.0,55,0.00,,,0.00,weatherlink.com 1.10,2013-05-03 03:32:00,
2013-05-02 23:47:00,65.9,49.0,29.44,SE,136,1.0,3.0,54,0.00,,,0.00,weatherlink.com 1.10,2013-05-03 03:47:00,